StationID,Date,MaxTemp,MinTemp,Precipitation,Snowfall,SnowDepth
"CA002100605","1978-12-01",23.00,3.92,0.00,0.00,
"CA002100605","1978-12-02",17.06,6.08,0.00,0.00,
"CA002100605","1978-12-03",21.92,15.98,81.00,81.00,
"CA002100605","1978-12-04",21.02,-9.94,0.00,0.00,
"CA002100605","1978-12-05",-0.04,-16.96,0.00,0.00,
"CA002100605","1978-12-06",3.92,-22.00,30.00,30.00,
"CA002100605","1978-12-07",15.08,3.92,36.00,36.00,
"CA002100605","1978-12-08",17.96,10.94,25.00,25.00,
"CA002100605","1978-12-09",17.06,12.92,20.00,20.00,
"CA002100605","1978-12-10",15.08,-2.02,0.00,0.00,
"CA002100605","1978-12-11",5.00,-2.02,0.00,0.00,
"CA002100605","1978-12-12",-2.02,-20.02,0.00,0.00,
"CA002100605","1978-12-13",8.96,-11.02,0.00,0.00,
"CA002100605","1978-12-14",10.04,-11.02,10.00,10.00,
"CA002100605","1978-12-15",8.96,-2.92,10.00,10.00,
"CA002100605","1978-12-16",-0.94,-27.04,5.00,5.00,
"CA002100605","1978-12-17",-7.96,-36.94,0.00,0.00,
"CA002100605","1978-12-18",3.92,-9.04,71.00,71.00,
"CA002100605","1978-12-19",6.98,-23.98,0.00,0.00,
"CA002100605","1978-12-20",-9.94,-25.96,20.00,20.00,
"CA002100605","1978-12-21",-16.96,-34.06,0.00,0.00,
"CA002100605","1978-12-22",-20.02,-41.98,0.00,0.00,
"CA002100605","1978-12-23",-11.02,-27.94,0.00,0.00,
"CA002100605","1978-12-24",-7.06,-20.92,0.00,0.00,
"CA002100605","1978-12-25",-18.04,-34.96,0.00,0.00,
"CA002100605","1978-12-26",-18.94,-38.02,0.00,0.00,
"CA002100605","1978-12-27",-9.94,-34.96,0.00,0.00,
"CA002100605","1978-12-28",1.04,-11.92,0.00,0.00,
"CA002100605","1978-12-29",5.00,-0.04,5.00,5.00,
"CA002100605","1978-12-30",3.02,-9.04,0.00,0.00,
"CA002100605","1978-12-31",-7.06,-16.96,0.00,0.00,
"CA002100605","1979-02-01",1.94,-11.92,,,
"CA002100605","1979-02-02",-11.92,-32.08,,,
"CA002100605","1979-02-03",-22.00,-47.92,,,
"CA002100605","1979-02-04",-41.98,-56.02,,,
"CA002100605","1979-02-05",,-58.00,,,
"CA002100605","1979-02-06",,-61.96,,,
"CA002100605","1979-02-07",,-61.06,,,
"CA002100605","1979-02-08",,-63.94,,,
"CA002100605","1979-02-09",,-61.06,,,
"CA002100605","1979-02-10",,-61.96,,,
"CA002100605","1979-02-11",,-61.96,,,
"CA002100605","1979-02-12",,-63.04,,,
"CA002100605","1979-02-13",,-63.04,,,
"CA002100605","1979-02-14",,-63.04,,,
"CA002100605","1979-02-15",,-63.04,,,
"CA002100605","1979-02-16",-40.00,-61.06,,,
"CA002100605","1979-02-17",-20.02,-49.00,,,
"CA002100605","1979-02-18",-16.06,-38.02,,,
"CA002100605","1979-02-19",-11.92,-31.00,,,
"CA002100605","1979-02-20",-7.96,-32.08,,,
"CA002100605","1979-02-21",-14.98,-41.08,,,
"CA002100605","1979-02-22",-14.98,-38.92,,,
"CA002100605","1979-02-23",-11.92,-41.08,,,
"CA002100605","1979-02-24",-9.94,-38.02,,,
"CA002100605","1979-02-25",-9.04,-38.92,,,
"CA002100605","1979-02-26",-9.94,-40.00,,,
"CA002100605","1979-02-27",-9.94,-40.00,,,
"CA002100605","1979-02-28",-9.94,-41.98,,,
"CA002100605","1979-03-01",-7.06,-41.98,0.00,0.00,
"CA002100605","1979-03-02",-13.00,-41.98,0.00,0.00,
"CA002100605","1979-03-03",-11.02,-40.00,25.00,25.00,
"CA002100605","1979-03-04",-7.06,-32.98,8.00,8.00,
"CA002100605","1979-03-05",3.02,-16.96,0.00,0.00,
"CA002100605","1979-03-06",17.96,-18.04,0.00,0.00,
"CA002100605","1979-03-07",26.96,-7.06,36.00,36.00,
"CA002100605","1979-03-08",30.02,-2.92,0.00,0.00,
"CA002100605","1979-03-09",15.08,-11.92,0.00,0.00,
"CA002100605","1979-03-10",14.00,8.06,0.00,0.00,
"CA002100605","1979-03-11",12.92,-5.08,0.00,0.00,
"CA002100605","1979-03-12",12.92,-5.98,5.00,5.00,
"CA002100605","1979-03-13",12.92,3.02,25.00,25.00,
"CA002100605","1979-03-14",12.92,-11.92,0.00,0.00,
"CA002100605","1979-03-15",8.06,-11.92,25.00,25.00,
"CA002100605","1979-03-16",14.00,-16.06,30.00,30.00,
"CA002100605","1979-03-17",12.02,-14.08,10.00,10.00,
"CA002100605","1979-03-18",17.96,-0.94,66.00,66.00,
"CA002100605","1979-03-19",26.06,8.06,0.00,0.00,
"CA002100605","1979-03-20",37.04,-2.02,0.00,0.00,
"CA002100605","1979-03-21",35.06,3.92,50.00,25.00,
"CA002100605","1979-03-22",33.08,15.08,0.00,0.00,
"CA002100605","1979-03-23",33.08,21.92,0.00,0.00,
"CA002100605","1979-03-24",39.92,10.94,0.00,0.00,
"CA002100605","1979-03-25",33.08,15.98,20.00,20.00,
"CA002100605","1979-03-26",33.98,8.96,0.00,0.00,
"CA002100605","1979-03-27",28.94,10.94,0.00,0.00,
"CA002100605","1979-03-28",24.98,12.92,0.00,0.00,
"CA002100605","1979-03-29",23.00,-2.92,0.00,0.00,
"CA002100605","1979-03-30",24.08,-16.06,0.00,0.00,
"CA002100605","1979-03-31",,-14.98,0.00,0.00,
"CA002100605","1979-04-01",26.96,-9.94,0.00,0.00,
"CA002100605","1979-04-02",26.06,-14.08,20.00,20.00,
"CA002100605","1979-04-03",28.94,-9.94,0.00,0.00,
"CA002100605","1979-04-04",37.94,-5.08,0.00,0.00,
"CA002100605","1979-04-05",30.92,17.06,0.00,0.00,
"CA002100605","1979-04-06",42.98,21.02,0.00,0.00,
"CA002100605","1979-04-07",44.96,17.96,0.00,0.00,
"CA002100605","1979-04-08",42.08,24.08,66.00,66.00,
"CA002100605","1979-04-09",26.06,21.02,0.00,0.00,
"CA002100605","1979-04-10",21.92,8.96,0.00,0.00,
"CA002100605","1979-04-11",19.04,-11.02,0.00,0.00,
"CA002100605","1979-04-12",19.94,-14.98,0.00,0.00,
"CA002100605","1979-04-13",19.04,-16.96,0.00,0.00,
"CA002100605","1979-04-14",21.02,-14.98,0.00,0.00,
"CA002100605","1979-04-15",35.96,-14.08,0.00,0.00,
"CA002100605","1979-04-16",44.06,-7.96,0.00,0.00,
"CA002100605","1979-04-17",46.94,1.94,0.00,0.00,
"CA002100605","1979-04-18",46.94,10.04,0.00,0.00,
"CA002100605","1979-04-19",55.04,19.04,0.00,0.00,
"CA002100605","1979-04-20",,19.94,0.00,0.00,
"CA002100605","1979-04-21",46.94,,13.00,0.00,
"CA002100605","1979-04-22",48.92,28.04,0.00,0.00,
"CA002100605","1979-04-23",51.08,21.02,0.00,0.00,
"CA002100605","1979-04-24",55.04,26.96,0.00,0.00,
"CA002100605","1979-04-25",,30.92,0.00,0.00,
"CA002100605","1979-04-26",57.02,33.08,0.00,0.00,
"CA002100605","1979-04-27",60.98,28.94,0.00,0.00,
"CA002100605","1979-04-28",64.94,28.94,0.00,0.00,
"CA002100605","1979-04-29",66.92,28.04,0.00,0.00,
"CA002100605","1979-04-30",,28.94,0.00,0.00,
"CA002100605","1979-05-01",66.02,30.02,0.00,0.00,
"CA002100605","1979-05-02",62.06,30.92,0.00,0.00,
"CA002100605","1979-05-03",50.00,39.92,0.00,0.00,
"CA002100605","1979-05-04",57.02,39.92,0.00,0.00,
"CA002100605","1979-05-05",,32.00,0.00,0.00,
"CA002100605","1979-05-06",62.06,,0.00,0.00,
"CA002100605","1979-05-07",37.94,23.00,0.00,0.00,
"CA002100605","1979-05-08",44.96,19.04,0.00,0.00,
"CA002100605","1979-05-09",55.04,28.04,0.00,0.00,
"CA002100605","1979-05-10",60.08,26.96,0.00,0.00,
"CA002100605","1979-05-11",57.92,30.02,0.00,0.00,
"CA002100605","1979-05-12",,32.00,0.00,0.00,
"CA002100605","1979-05-13",57.92,,0.00,0.00,
"CA002100605","1979-05-14",60.08,28.94,0.00,0.00,
"CA002100605","1979-05-15",55.94,28.94,0.00,0.00,
"CA002100605","1979-05-16",57.92,28.04,0.00,0.00,
"CA002100605","1979-05-17",59.00,30.92,0.00,0.00,
"CA002100605","1979-05-18",55.94,30.02,25.00,0.00,
"CA002100605","1979-05-19",60.08,32.00,0.00,0.00,
"CA002100605","1979-05-20",59.00,32.00,0.00,0.00,
"CA002100605","1979-05-21",57.92,33.08,0.00,0.00,
"CA002100605","1979-05-22",62.06,33.98,0.00,0.00,
"CA002100605","1979-05-23",60.98,32.00,0.00,0.00,
"CA002100605","1979-05-24",62.06,32.00,0.00,0.00,
"CA002100605","1979-05-25",66.02,41.00,10.00,0.00,
"CA002100605","1979-05-26",71.96,44.06,0.00,0.00,
"CA002100605","1979-05-27",73.94,35.06,0.00,0.00,
"CA002100605","1979-05-28",71.96,41.00,0.00,0.00,
"CA002100605","1979-05-29",71.96,44.06,0.00,0.00,
"CA002100605","1979-05-30",57.92,48.02,0.00,0.00,
"CA002100605","1979-05-31",68.00,35.06,0.00,0.00,
"CA002100605","1979-06-01",71.06,39.02,0.00,0.00,
"CA002100605","1979-06-02",69.98,41.00,64.00,0.00,
"CA002100605","1979-06-03",73.94,41.00,0.00,0.00,
"CA002100605","1979-06-04",71.06,42.08,0.00,0.00,
"CA002100605","1979-06-05",73.94,42.08,0.00,0.00,
"CA002100605","1979-06-06",75.02,46.04,0.00,0.00,
"CA002100605","1979-06-07",75.02,44.06,0.00,0.00,
"CA002100605","1979-06-08",73.94,44.06,33.00,0.00,
"CA002100605","1979-06-09",75.02,44.06,0.00,0.00,
"CA002100605","1979-06-10",71.96,48.02,0.00,0.00,
"CA002100605","1979-06-11",57.02,48.02,117.00,0.00,
"CA002100605","1979-06-12",57.02,35.96,13.00,0.00,
"CA002100605","1979-06-13",55.04,37.04,38.00,0.00,
"CA002100605","1979-06-14",57.92,37.94,0.00,0.00,
"CA002100605","1979-06-15",66.02,35.06,0.00,0.00,
"CA002100605","1979-06-16",,35.96,0.00,0.00,
"CA002100605","1979-06-17",71.06,,58.00,0.00,
"CA002100605","1979-06-18",66.02,44.96,0.00,0.00,
"CA002100605","1979-06-19",69.98,48.92,0.00,0.00,
"CA002100605","1979-06-20",66.92,48.92,23.00,0.00,
"CA002100605","1979-06-21",69.98,46.04,0.00,0.00,
"CA002100605","1979-06-22",69.08,48.02,0.00,0.00,
"CA002100605","1979-06-23",,51.08,0.00,0.00,
"CA002100605","1979-06-24",75.92,,0.00,0.00,
"CA002100605","1979-06-25",69.08,46.04,28.00,0.00,
"CA002100605","1979-06-26",64.04,48.02,15.00,0.00,
"CA002100605","1979-06-27",60.98,44.96,13.00,0.00,
"CA002100605","1979-06-28",62.06,42.98,117.00,0.00,
"CA002100605","1979-06-29",66.02,37.94,0.00,0.00,
"CA002100605","1979-06-30",,42.08,0.00,0.00,
"CA002100605","1979-10-01",55.04,28.94,,,
"CA002100605","1979-10-02",48.92,26.06,,,
"CA002100605","1979-10-03",51.98,26.96,,,
"CA002100605","1979-10-04",48.92,23.00,,,
"CA002100605","1979-10-05",51.98,24.08,,,
"CA002100605","1979-10-06",,28.94,,,
"CA002100605","1979-10-07",50.00,,,,
"CA002100605","1979-10-08",44.96,19.94,,,
"CA002100605","1979-10-09",53.06,19.04,,,
"CA002100605","1979-10-10",51.98,26.96,,,
"CA002100605","1979-10-11",51.98,28.04,,,
"CA002100605","1979-10-12",42.08,28.94,,,
"CA002100605","1979-10-13",,23.00,,,
"CA002100605","1979-10-14",37.94,,,,
"CA002100605","1979-10-15",32.00,17.96,,,
"CA002100605","1979-10-16",32.00,17.06,,,
"CA002100605","1979-10-17",30.02,15.08,,,
"CA002100605","1979-10-18",32.00,-5.08,,,
"CA002100605","1979-10-19",30.02,24.98,,,
"CA002100605","1979-10-20",,21.02,,,
"CA002100605","1979-10-21",28.04,,,,
"CA002100605","1979-10-22",33.08,21.02,,,
"CA002100605","1979-10-23",26.06,21.92,,,
"CA002100605","1979-10-24",48.02,17.96,,,
"CA002100605","1979-10-25",33.08,21.02,,,
"CA002100605","1979-10-26",33.08,21.92,,,
"CA002100605","1979-10-27",26.06,15.08,,,
"CA002100605","1979-10-28",30.02,17.96,,,
"CA002100605","1979-10-29",33.98,19.94,,,
"CA002100605","1979-10-30",39.02,19.94,,,
"CA002100605","1979-10-31",,26.06,,,
"CA002100605","1979-11-01",19.04,8.96,0.00,0.00,
"CA002100605","1979-11-02",14.00,6.08,0.00,0.00,
"CA002100605","1979-11-03",12.02,5.00,0.00,0.00,
"CA002100605","1979-11-04",10.94,1.94,0.00,0.00,
"CA002100605","1979-11-05",15.08,-5.08,0.00,0.00,
"CA002100605","1979-11-06",19.94,-5.08,0.00,0.00,
"CA002100605","1979-11-07",19.94,6.08,0.00,0.00,
"CA002100605","1979-11-08",21.92,6.08,0.00,0.00,
"CA002100605","1979-11-09",24.08,10.04,0.00,0.00,
"CA002100605","1979-11-10",21.92,10.94,0.00,0.00,
"CA002100605","1979-11-11",30.92,17.96,0.00,0.00,
"CA002100605","1979-11-12",26.06,19.04,61.00,61.00,
"CA002100605","1979-11-13",26.96,19.04,61.00,61.00,
"CA002100605","1979-11-14",12.02,-2.02,0.00,0.00,
"CA002100605","1979-11-15",26.96,-2.92,0.00,0.00,
"CA002100605","1979-11-16",21.92,3.02,76.00,76.00,
"CA002100605","1979-11-17",23.00,5.00,0.00,0.00,
"CA002100605","1979-11-18",-0.94,-2.02,5.00,5.00,
"CA002100605","1979-11-19",23.00,-18.04,0.00,0.00,
"CA002100605","1979-11-20",24.08,-13.00,0.00,0.00,
"CA002100605","1979-11-21",42.98,-0.04,0.00,0.00,
"CA002100605","1979-11-22",42.98,-0.04,0.00,0.00,
"CA002100605","1979-11-23",19.94,15.08,41.00,41.00,
"CA002100605","1979-11-24",21.02,10.94,10.00,10.00,
"CA002100605","1979-11-25",-11.02,-13.00,0.00,0.00,
"CA002100605","1979-11-26",1.04,-16.96,0.00,0.00,
"CA002100605","1979-11-27",10.94,-16.96,0.00,0.00,
"CA002100605","1979-11-28",24.98,-0.04,0.00,0.00,
"CA002100605","1979-11-29",28.94,-0.04,0.00,0.00,
"CA002100605","1979-11-30",,3.92,0.00,0.00,
"CA002100605","1979-12-01",21.92,15.08,0.00,0.00,
"CA002100605","1979-12-02",19.94,15.08,0.00,0.00,
"CA002100605","1979-12-03",24.08,5.00,5.00,5.00,
"CA002100605","1979-12-04",21.92,6.98,3.00,3.00,
"CA002100605","1979-12-05",1.94,1.04,0.00,0.00,
"CA002100605","1979-12-06",-23.98,-27.04,0.00,0.00,
"CA002100605","1979-12-07",-32.08,-34.96,0.00,0.00,
"CA002100605","1979-12-08",-29.92,-38.92,0.00,0.00,
"CA002100605","1979-12-09",-13.00,-38.92,5.00,5.00,
"CA002100605","1979-12-10",-2.02,-38.92,0.00,0.00,
"CA002100605","1979-12-11",-13.00,-29.92,0.00,0.00,
"CA002100605","1979-12-12",-32.98,-34.96,0.00,0.00,
"CA002100605","1979-12-13",-36.04,-49.00,0.00,0.00,
"CA002100605","1979-12-14",-22.00,-49.00,0.00,0.00,
"CA002100605","1979-12-15",-29.02,-36.94,0.00,0.00,
"CA002100605","1979-12-16",,-45.04,0.00,0.00,
"CA002100605","1979-12-17",-14.98,-50.98,41.00,41.00,
"CA002100605","1979-12-18",-14.98,-45.04,30.00,30.00,
"CA002100605","1979-12-19",-9.94,-18.04,0.00,0.00,
"CA002100605","1979-12-20",-5.98,-23.08,66.00,66.00,
"CA002100605","1979-12-21",-11.02,-23.98,10.00,10.00,
"CA002100605","1979-12-22",-14.98,-27.94,30.00,30.00,
"CA002100605","1979-12-23",-16.96,-25.06,10.00,10.00,
"CA002100605","1979-12-24",-18.04,-27.04,0.00,0.00,
"CA002100605","1979-12-25",-0.04,-29.02,0.00,0.00,
"CA002100605","1979-12-26",-7.96,-18.04,0.00,0.00,
"CA002100605","1979-12-27",-11.02,-20.02,0.00,0.00,
"CA002100605","1979-12-28",-9.94,-25.96,5.00,5.00,
"CA002100605","1979-12-29",-2.92,-27.04,3.00,3.00,
"CA002100605","1979-12-30",-4.00,-16.06,15.00,15.00,
"CA002100605","1979-12-31",,-18.94,0.00,0.00,
"CA002100605","1980-01-01",,-43.96,0.00,0.00,
"CA002100605","1980-01-02",-34.96,-50.98,0.00,0.00,
"CA002100605","1980-01-03",-34.96,-50.08,0.00,0.00,
"CA002100605","1980-01-04",-23.08,-50.98,5.00,5.00,
"CA002100605","1980-01-05",-7.06,-52.96,86.00,86.00,
"CA002100605","1980-01-06",-5.08,-23.08,10.00,10.00,
"CA002100605","1980-01-07",-7.96,-14.98,41.00,41.00,
"CA002100605","1980-01-08",-7.06,-32.98,0.00,0.00,
"CA002100605","1980-01-09",5.00,-23.98,0.00,0.00,
"CA002100605","1980-01-10",-31.00,-34.96,0.00,0.00,
"CA002100605","1980-01-11",,-52.06,0.00,0.00,
"CA002100605","1980-01-12",,-61.96,0.00,0.00,
"CA002100605","1980-01-13",,-63.94,0.00,0.00,
"CA002100605","1980-01-14",,-67.00,0.00,0.00,
"CA002100605","1980-01-15",-29.92,-67.00,5.00,5.00,
"CA002100605","1980-01-16",-18.94,-40.00,0.00,0.00,
"CA002100605","1980-01-17",10.94,-38.92,13.00,13.00,
"CA002100605","1980-01-18",32.00,-18.94,0.00,0.00,
"CA002100605","1980-01-19",30.92,-18.94,0.00,0.00,
"CA002100605","1980-01-20",12.02,-2.02,0.00,0.00,
"CA002100605","1980-01-21",37.04,-5.98,0.00,0.00,
"CA002100605","1980-01-22",28.94,1.94,5.00,5.00,
"CA002100605","1980-01-23",10.04,10.04,0.00,0.00,
"CA002100605","1980-01-24",-25.06,-27.04,0.00,0.00,
"CA002100605","1980-01-25",-32.08,-40.00,0.00,0.00,
"CA002100605","1980-01-26",-27.04,-40.00,0.00,0.00,
"CA002100605","1980-01-27",-7.96,-36.04,38.00,38.00,
"CA002100605","1980-01-28",-0.04,-27.04,20.00,20.00,
"CA002100605","1980-01-29",5.00,-11.02,0.00,0.00,
"CA002100605","1980-01-30",-31.00,-36.04,0.00,0.00,
"CA002100605","1980-01-31",-11.02,-47.02,61.00,61.00,
"CA002100605","1980-02-01",-2.92,-34.96,30.00,30.00,
"CA002100605","1980-02-02",1.94,-14.08,10.00,10.00,
"CA002100605","1980-02-03",3.92,-9.04,0.00,0.00,
"CA002100605","1980-02-04",33.98,-18.04,0.00,0.00,
"CA002100605","1980-02-05",21.02,-14.98,0.00,0.00,
"CA002100605","1980-02-06",32.00,-2.02,0.00,0.00,
"CA002100605","1980-02-07",26.96,6.98,0.00,0.00,
"CA002100605","1980-02-08",1.94,-9.04,0.00,0.00,
"CA002100605","1980-02-09",24.08,-9.94,0.00,0.00,
"CA002100605","1980-02-10",15.08,-2.02,0.00,0.00,
"CA002100605","1980-02-11",21.92,-4.00,0.00,0.00,
"CA002100605","1980-02-12",12.02,-0.04,0.00,0.00,
"CA002100605","1980-02-13",5.00,-11.92,0.00,0.00,
"CA002100605","1980-02-14",-0.04,-16.96,0.00,0.00,
"CA002100605","1980-02-15",1.04,-20.02,0.00,0.00,
"CA002100605","1980-02-16",-4.00,-27.04,0.00,0.00,
"CA002100605","1980-02-17",-2.92,-27.04,0.00,0.00,
"CA002100605","1980-02-18",-14.98,-31.00,0.00,0.00,
"CA002100605","1980-02-19",-14.98,-40.00,0.00,0.00,
"CA002100605","1980-02-20",-9.94,-41.08,0.00,0.00,
"CA002100605","1980-02-21",-0.94,-36.04,0.00,0.00,
"CA002100605","1980-02-22",-0.94,-25.96,0.00,0.00,
"CA002100605","1980-02-23",15.98,-25.96,0.00,0.00,
"CA002100605","1980-02-24",21.02,-9.94,0.00,0.00,
"CA002100605","1980-02-25",21.02,-4.00,0.00,0.00,
"CA002100605","1980-02-26",26.06,-0.04,15.00,15.00,
"CA002100605","1980-02-27",19.94,14.00,10.00,10.00,
"CA002100605","1980-02-28",15.08,15.08,0.00,0.00,
"CA002100605","1980-02-29",10.94,-20.02,0.00,0.00,
"CA002100605","1980-03-01",1.04,-27.04,0.00,0.00,
"CA002100605","1980-03-02",3.02,-38.02,0.00,0.00,
"CA002100605","1980-03-03",10.94,-36.04,0.00,0.00,
"CA002100605","1980-03-04",19.94,-14.08,0.00,0.00,
"CA002100605","1980-03-05",23.00,-4.00,0.00,0.00,
"CA002100605","1980-03-06",23.00,-2.02,5.00,5.00,
"CA002100605","1980-03-07",28.94,8.06,30.00,30.00,
"CA002100605","1980-03-08",28.04,14.00,46.00,46.00,
"CA002100605","1980-03-09",,15.98,0.00,0.00,
"CA002100605","1980-03-10",28.04,,10.00,10.00,
"CA002100605","1980-03-11",24.98,10.04,0.00,0.00,
"CA002100605","1980-03-12",21.02,1.94,0.00,0.00,
"CA002100605","1980-03-13",8.96,3.92,0.00,0.00,
"CA002100605","1980-03-14",1.04,-16.96,0.00,0.00,
"CA002100605","1980-03-15",-2.02,-9.94,10.00,10.00,
"CA002100605","1980-03-16",5.00,-18.94,0.00,0.00,
"CA002100605","1980-03-17",10.04,-14.08,0.00,0.00,
"CA002100605","1980-03-18",21.02,-18.04,0.00,0.00,
"CA002100605","1980-03-19",26.96,-11.02,0.00,0.00,
"CA002100605","1980-03-20",33.08,-14.08,0.00,0.00,
"CA002100605","1980-03-21",37.04,-2.02,0.00,0.00,
"CA002100605","1980-03-22",30.92,3.02,0.00,0.00,
"CA002100605","1980-03-23",37.94,-0.94,0.00,0.00,
"CA002100605","1980-03-24",37.04,-2.02,0.00,0.00,
"CA002100605","1980-03-25",37.04,-2.92,0.00,0.00,
"CA002100605","1980-03-26",42.08,5.00,0.00,0.00,
"CA002100605","1980-03-27",42.98,6.98,0.00,0.00,
"CA002100605","1980-03-28",35.96,12.02,0.00,0.00,
"CA002100605","1980-03-29",44.06,21.92,0.00,0.00,
"CA002100605","1980-03-30",42.08,23.00,0.00,0.00,
"CA002100605","1980-03-31",,10.04,0.00,0.00,
"CA002100605","1980-04-01",46.04,24.08,0.00,0.00,
"CA002100605","1980-04-02",51.98,35.96,0.00,0.00,
"CA002100605","1980-04-03",51.98,19.04,0.00,0.00,
"CA002100605","1980-04-04",32.00,19.04,0.00,0.00,
"CA002100605","1980-04-05",28.04,8.06,0.00,0.00,
"CA002100605","1980-04-06",30.92,3.02,0.00,0.00,
"CA002100605","1980-04-07",33.98,6.08,0.00,0.00,
"CA002100605","1980-04-08",44.96,21.92,0.00,0.00,
"CA002100605","1980-04-09",48.92,17.96,0.00,0.00,
"CA002100605","1980-04-10",35.06,12.02,0.00,0.00,
"CA002100605","1980-04-11",23.00,14.00,25.00,25.00,
"CA002100605","1980-04-12",32.00,14.00,0.00,0.00,
"CA002100605","1980-04-13",46.94,8.96,0.00,0.00,
"CA002100605","1980-04-14",41.00,8.96,66.00,66.00,
"CA002100605","1980-04-15",41.00,23.00,0.00,0.00,
"CA002100605","1980-04-16",42.98,12.92,0.00,0.00,
"CA002100605","1980-04-17",46.04,14.00,0.00,0.00,
"CA002100605","1980-04-18",44.06,17.06,0.00,0.00,
"CA002100605","1980-04-19",28.94,26.06,15.00,15.00,
"CA002100605","1980-04-20",39.02,15.08,0.00,0.00,
"CA002100605","1980-04-21",,17.06,0.00,0.00,
"CA002100605","1980-04-22",51.98,,0.00,0.00,
"CA002100605","1980-04-23",48.92,28.04,0.00,0.00,
"CA002100605","1980-04-24",53.06,24.08,0.00,0.00,
"CA002100605","1980-04-25",51.08,30.02,0.00,0.00,
"CA002100605","1980-04-26",55.04,33.08,0.00,0.00,
"CA002100605","1980-04-27",55.04,26.96,0.00,0.00,
"CA002100605","1980-04-28",53.96,28.94,0.00,0.00,
"CA002100605","1980-04-29",51.98,30.02,0.00,0.00,
"CA002100605","1980-04-30",,28.04,0.00,0.00,
"CA002100605","1980-05-01",57.02,30.92,46.00,0.00,
"CA002100605","1980-05-02",42.98,35.06,66.00,0.00,
"CA002100605","1980-05-03",50.00,30.02,5.00,0.00,
"CA002100605","1980-05-04",57.02,28.04,0.00,0.00,
"CA002100605","1980-05-05",60.98,26.96,0.00,0.00,
"CA002100605","1980-05-06",53.06,33.98,41.00,0.00,
"CA002100605","1980-05-07",51.08,37.04,5.00,0.00,
"CA002100605","1980-05-08",60.08,33.08,3.00,0.00,
"CA002100605","1980-05-09",62.96,33.08,0.00,0.00,
"CA002100605","1980-05-10",62.06,28.94,0.00,0.00,
"CA002100605","1980-05-11",60.98,35.96,0.00,0.00,
"CA002100605","1980-05-12",64.04,30.92,0.00,0.00,
"CA002100605","1980-05-13",73.94,33.98,0.00,0.00,
"CA002100605","1980-05-14",71.06,35.96,0.00,0.00,
"CA002100605","1980-05-15",71.06,39.02,0.00,0.00,
"CA002100605","1980-05-16",71.96,30.92,0.00,0.00,
"CA002100605","1980-05-17",62.06,48.92,0.00,0.00,
"CA002100605","1980-05-18",64.04,39.92,0.00,0.00,
"CA002100605","1980-05-19",64.04,33.08,0.00,0.00,
"CA002100605","1980-05-20",57.92,33.98,38.00,0.00,
"CA002100605","1980-05-21",57.02,37.04,18.00,0.00,
"CA002100605","1980-05-22",55.94,37.94,10.00,0.00,
"CA002100605","1980-05-23",62.96,32.00,3.00,0.00,
"CA002100605","1980-05-24",71.96,32.00,0.00,0.00,
"CA002100605","1980-05-25",75.92,35.06,0.00,0.00,
"CA002100605","1980-05-26",75.92,35.96,0.00,0.00,
"CA002100605","1980-05-27",75.02,39.92,0.00,0.00,
"CA002100605","1980-05-28",77.00,39.02,0.00,0.00,
"CA002100605","1980-05-29",66.92,42.98,0.00,0.00,
"CA002100605","1980-05-30",71.06,39.02,0.00,0.00,
"CA002100605","1980-05-31",57.02,44.96,0.00,0.00,
"CA002100605","1980-07-01",76.10,47.30,2.00,0.00,
"CA002100605","1980-07-02",79.70,44.60,0.00,0.00,
"CA002100605","1980-07-03",75.20,48.20,6.00,0.00,
"CA002100605","1980-07-04",64.40,54.50,30.00,0.00,
"CA002100605","1980-07-05",75.20,44.60,0.00,0.00,
"CA002100605","1980-07-06",77.00,48.20,0.00,0.00,
"CA002100605","1980-07-07",69.80,54.50,223.00,0.00,
"CA002100605","1980-07-08",66.20,54.50,2.00,0.00,
"CA002100605","1980-07-09",70.70,49.10,12.00,0.00,
"CA002100605","1980-07-10",68.90,51.80,28.00,0.00,
"CA002100605","1980-07-11",72.50,50.00,0.00,0.00,
"CA002100605","1980-07-12",,45.50,0.00,0.00,
"CA002100605","1980-07-13",67.10,,10.00,0.00,
"CA002100605","1980-07-14",68.90,51.80,0.00,0.00,
"CA002100605","1980-07-15",75.20,46.40,0.00,0.00,
"CA002100605","1980-07-16",68.90,49.10,0.00,0.00,
"CA002100605","1980-07-17",72.50,42.80,0.00,0.00,
"CA002100605","1980-07-18",64.40,44.60,0.00,0.00,
"CA002100605","1980-07-19",,46.40,0.00,0.00,
"CA002100605","1980-07-20",71.60,,0.00,0.00,
"CA002100605","1980-07-21",71.60,41.00,0.00,0.00,
"CA002100605","1980-07-22",73.40,39.20,0.00,0.00,
"CA002100605","1980-07-23",75.20,29.30,0.00,0.00,
"CA002100605","1980-07-24",79.70,40.10,0.00,0.00,
"CA002100605","1980-07-25",72.50,43.70,28.00,0.00,
"CA002100605","1980-07-26",67.10,48.20,4.00,0.00,
"CA002100605","1980-07-27",70.70,47.30,44.00,0.00,
"CA002100605","1980-07-28",61.70,50.00,18.00,0.00,
"CA002100605","1980-07-29",65.30,40.10,6.00,0.00,
"CA002100605","1980-07-30",65.30,41.00,106.00,0.00,
"CA002100605","1980-07-31",62.60,41.00,4.00,0.00,
"CA002100605","1980-08-01",59.90,48.20,0.00,0.00,
"CA002100605","1980-08-02",68.90,37.40,0.00,0.00,
"CA002100605","1980-08-03",64.40,39.20,64.00,0.00,
"CA002100605","1980-08-04",61.70,43.70,6.00,0.00,
"CA002100605","1980-08-05",68.90,35.60,0.00,0.00,
"CA002100605","1980-08-06",,37.40,,0.00,
"CA002100605","1980-08-07",75.20,,,0.00,
"CA002100605","1980-08-08",69.80,37.40,16.00,0.00,
"CA002100605","1980-08-09",71.60,52.70,0.00,0.00,
"CA002100605","1980-08-10",78.80,44.60,0.00,0.00,
"CA002100605","1980-08-11",82.40,44.60,0.00,0.00,
"CA002100605","1980-08-12",83.30,45.50,0.00,0.00,
"CA002100605","1980-08-13",74.30,48.20,64.00,0.00,
"CA002100605","1980-08-14",56.30,53.60,36.00,0.00,
"CA002100605","1980-08-15",60.80,50.00,4.00,0.00,
"CA002100605","1980-08-16",,45.50,,0.00,
"CA002100605","1980-08-17",,,,0.00,
"CA002100605","1980-08-18",63.50,,,0.00,
"CA002100605","1980-08-19",59.00,47.30,90.00,0.00,
"CA002100605","1980-08-20",50.00,40.10,80.00,0.00,
"CA002100605","1980-08-21",58.10,36.50,0.00,0.00,
"CA002100605","1980-08-22",58.10,32.00,0.00,0.00,
"CA002100605","1980-08-23",62.60,33.80,0.00,0.00,